Location: Unspecified
(52.0000°N, 4.4000°E)
Time: 00:55:26
(UTC+00:00)

SL-16 R/B - Pass Details

Date: 14 May 2025
Orbit: 841 x 846 km, 71.0° (Epoch: 23 June)

Event Time Altitude Azimuth Distance (km) Brightness Sun altitude
Rises 20:07:21 0° 235° (SW) 3,396 5.5 -5.6°
Reaches altitude 10° 20:09:57 10° 243° (WSW) 2,464 4.9 -5.9°
Maximum altitude 20:15:15 40° 313° (NW) 1,230 3.9 -6.5°
Drops below altitude 10° 20:20:34 10° 22° (NNE) 2,473 4.9 -7.1°
Sets 20:23:11 0° 30° (NNE) 3,411 5.5 -7.4°
